�������l�o���
Date,Time,MP-1(��Sv/h),MP-2(��Sv/h),MP-3(��Sv/h),MP-4(��Sv/h),MP-5(��Sv/h),MP-6(��Sv/h),MP-7(��Sv/h),MP-8(��Sv/h),����,����(m/s),���J
2017/12/22,00:00,0.897,1.502,0.937,1.774,1.201,0.493,0.879,0.845,���k��,5.4,��
2017/12/22,00:10,0.900,1.500,0.939,1.772,1.199,0.493,0.879,0.847,���k��,4.8,��
2017/12/22,00:20,0.899,1.503,0.938,1.770,1.200,0.492,0.877,0.844,���k��,4.4,��
2017/12/22,00:30,0.899,1.499,0.938,1.770,1.198,0.491,0.878,0.844,��,4.7,��
2017/12/22,00:40,0.899,1.502,0.938,1.770,1.200,0.492,0.878,0.844,��,4.7,��
2017/12/22,00:50,0.900,1.500,0.939,1.770,1.199,0.492,0.880,0.846,��,4.4,��
2017/12/22,01:00,0.900,1.501,0.938,1.769,1.199,0.493,0.877,0.846,��,3.1,��
2017/12/22,01:10,0.895,1.501,0.938,1.771,1.200,0.494,0.878,0.847,���k��,3.0,��
2017/12/22,01:20,0.900,1.500,0.935,1.768,1.199,0.493,0.879,0.844,���k��,3.7,��
2017/12/22,01:30,0.898,1.500,0.937,1.769,1.198,0.493,0.878,0.847,���k��,5.0,��
2017/12/22,01:40,0.898,1.498,0.939,1.770,1.197,0.493,0.878,0.845,���k��,5.8,��
2017/12/22,01:50,0.900,1.500,0.936,1.770,1.199,0.492,0.878,0.845,���k��,7.1,��
2017/12/22,02:00,0.898,1.498,0.938,1.772,1.197,0.495,0.878,0.845,���k��,6.3,��
2017/12/22,02:10,0.897,1.500,0.938,1.769,1.198,0.493,0.879,0.845,���k��,6.1,��
2017/12/22,02:20,0.898,1.499,0.937,1.772,1.200,0.493,0.878,0.844,��,6.1,��
2017/12/22,02:30,0.901,1.499,0.938,1.770,1.197,0.493,0.879,0.847,��,5.1,��
2017/12/22,02:40,0.899,1.500,0.939,1.772,1.199,0.493,0.880,0.844,���쐼,4.2,��
2017/12/22,02:50,0.897,1.501,0.937,1.769,1.198,0.493,0.878,0.846,���쐼,6.2,��
2017/12/22,03:00,0.898,1.500,0.938,1.771,1.197,0.493,0.878,0.847,���쐼,5.8,��
2017/12/22,03:10,0.899,1.500,0.938,1.771,1.199,0.494,0.880,0.846,���쐼,4.5,��
2017/12/22,03:20,0.898,1.501,0.938,1.771,1.199,0.493,0.877,0.847,���쐼,5.1,��
2017/12/22,03:30,0.898,1.498,0.939,1.771,1.198,0.492,0.879,0.847,��,6.1,��
2017/12/22,03:40,0.898,1.498,0.938,1.771,1.199,0.493,0.878,0.846,��,5.9,��
2017/12/22,03:50,0.897,1.500,0.935,1.772,1.196,0.493,0.878,0.846,���쐼,5.0,��
2017/12/22,04:00,0.898,1.501,0.939,1.770,1.197,0.493,0.880,0.846,���쐼,4.5,��
2017/12/22,04:10,0.897,1.499,0.938,1.770,1.198,0.492,0.879,0.844,���쐼,3.9,��
2017/12/22,04:20,0.900,1.499,0.935,1.769,1.199,0.493,0.879,0.846,�쐼,3.3,��
2017/12/22,04:30,0.897,1.498,0.937,1.769,1.195,0.490,0.878,0.845,���쐼,2.6,��
2017/12/22,04:40,0.897,1.499,0.936,1.769,1.194,0.493,0.878,0.846,���쐼,3.5,��
2017/12/22,04:50,0.900,1.500,0.936,1.773,1.197,0.491,0.879,0.844,���쐼,3.9,��
2017/12/22,05:00,0.899,1.501,0.934,1.772,1.197,0.493,0.879,0.844,�쐼,3.4,��
2017/12/22,05:10,0.899,1.498,0.938,1.766,1.199,0.491,0.879,0.845,��쐼,3.5,��
2017/12/22,05:20,0.898,1.498,0.935,1.771,1.197,0.493,0.878,0.846,�쐼,2.6,��
2017/12/22,05:30,0.898,1.499,0.937,1.768,1.196,0.491,0.878,0.845,�쐼,3.7,��
2017/12/22,05:40,0.898,1.498,0.939,1.771,1.196,0.492,0.881,0.846,��쐼,4.0,��
2017/12/22,05:50,0.896,1.498,0.936,1.770,1.198,0.492,0.878,0.844,�쐼,3.5,��
2017/12/22,06:00,0.898,1.497,0.936,1.768,1.198,0.491,0.879,0.845,�쐼,3.1,��
2017/12/22,06:10,0.900,1.499,0.935,1.769,1.197,0.492,0.879,0.845,�쐼,3.8,��
2017/12/22,06:20,0.897,1.497,0.936,1.767,1.197,0.491,0.878,0.844,�쐼,4.7,��
2017/12/22,06:30,0.898,1.499,0.937,1.769,1.196,0.492,0.879,0.845,�쐼,3.9,��
2017/12/22,06:40,0.897,1.498,0.938,1.770,1.198,0.494,0.878,0.847,�쐼,4.0,��
2017/12/22,06:50,0.897,1.497,0.936,1.769,1.193,0.491,0.879,0.845,�쐼,4.7,��
2017/12/22,07:00,0.896,1.496,0.937,1.768,1.195,0.492,0.879,0.845,�쐼,5.1,��
2017/12/22,07:10,0.898,1.496,0.937,1.769,1.196,0.492,0.878,0.845,�쐼,3.9,��
2017/12/22,07:20,0.896,1.498,0.936,1.766,1.195,0.492,0.877,0.845,���쐼,3.7,��
2017/12/22,07:30,0.898,1.501,0.936,1.771,1.195,0.492,0.879,0.845,��,4.1,��
2017/12/22,07:40,0.898,1.498,0.938,1.771,1.196,0.491,0.879,0.847,��,3.2,��
2017/12/22,07:50,0.897,1.499,0.936,1.772,1.196,0.492,0.878,0.845,��,4.2,��
2017/12/22,08:00,0.898,1.500,0.937,1.772,1.194,0.493,0.878,0.846,��,3.5,��
2017/12/22,08:10,0.897,1.499,0.937,1.773,1.193,0.493,0.879,0.847,���k��,1.5,��
2017/12/22,08:20,0.899,1.499,0.936,1.771,1.197,0.490,0.879,0.848,��,1.1,��
2017/12/22,08:30,0.899,1.498,0.938,1.776,1.196,0.490,0.880,0.847,�k��,1.9,��
2017/12/22,08:40,0.901,1.499,0.937,1.774,1.196,0.490,0.881,0.845,�k��,1.7,��
2017/12/22,08:50,0.899,1.502,0.939,1.772,1.196,0.491,0.881,0.848,�k��,1.2,��
2017/12/22,09:00,0.901,1.499,0.936,1.772,1.197,0.493,0.882,0.849,���쐼,1.1,��
2017/12/22,09:10,0.901,1.498,0.937,1.773,1.195,0.490,0.883,0.847,-,CALM,��
2017/12/22,09:20,0.900,1.500,0.938,1.775,1.197,0.490,0.883,0.847,��쓌,0.8,��
2017/12/22,09:30,0.900,1.500,0.938,1.775,1.200,0.492,0.882,0.848,��,0.8,��
2017/12/22,09:40,0.901,1.499,0.940,1.775,1.198,0.492,0.880,0.848,�쓌,0.9,��
2017/12/22,09:50,0.903,1.499,0.939,1.771,1.203,0.491,0.879,0.847,���쓌,2.0,��
2017/12/22,10:00,0.903,1.496,0.937,1.773,1.201,0.491,0.879,0.847,���쓌,2.6,��
2017/12/22,10:10,0.902,1.499,0.940,1.774,1.199,0.493,0.879,0.849,���쓌,1.7,��
2017/12/22,10:20,0.900,1.496,0.940,1.775,1.201,0.492,0.878,0.849,���쓌,1.5,��
2017/12/22,10:30,0.902,1.497,0.941,1.774,1.201,0.494,0.883,0.847,���쓌,2.2,��
2017/12/22,10:40,0.903,1.495,0.938,1.773,1.201,0.496,0.880,0.848,��,2.3,��
2017/12/22,10:50,0.902,1.500,0.940,1.772,1.202,0.495,0.882,0.848,���쓌,2.2,��
2017/12/22,11:00,0.902,1.501,0.941,1.774,1.201,0.493,0.880,0.848,��,2.8,��
2017/12/22,11:10,0.901,1.500,0.943,1.776,1.205,0.495,0.881,0.849,��,2.6,��
2017/12/22,11:20,0.902,1.500,0.942,1.775,1.204,0.493,0.883,0.848,��,2.3,��
2017/12/22,11:30,0.905,1.501,0.942,1.774,1.203,0.494,0.880,0.846,��,2.3,��
2017/12/22,11:40,0.901,1.503,0.942,1.775,1.204,0.495,0.883,0.849,���쓌,2.2,��
2017/12/22,11:50,0.903,1.499,0.940,1.777,1.202,0.497,0.883,0.851,��,2.9,��
2017/12/22,12:00,0.904,1.502,0.942,1.777,1.203,0.494,0.885,0.849,��,2.3,��
2017/12/22,12:10,0.905,1.504,0.941,1.779,1.202,0.494,0.885,0.850,���쓌,2.2,��
2017/12/22,12:20,0.904,1.500,0.942,1.775,1.204,0.495,0.886,0.849,���쓌,3.3,��
2017/12/22,12:30,0.906,1.501,0.942,1.778,1.207,0.495,0.884,0.848,�쓌,3.1,��
2017/12/22,12:40,0.905,1.498,0.942,1.777,1.205,0.494,0.885,0.849,�쓌,3.1,��
2017/12/22,12:50,0.903,1.500,0.942,1.776,1.206,0.495,0.885,0.849,��쓌,3.6,��
2017/12/22,13:00,0.907,1.500,0.943,1.778,1.205,0.496,0.884,0.848,��쓌,3.8,��
2017/12/22,13:10,0.905,1.497,0.941,1.776,1.205,0.495,0.886,0.849,��쓌,3.7,��
2017/12/22,13:20,0.905,1.500,0.943,1.778,1.206,0.495,0.886,0.848,��쓌,2.5,��
2017/12/22,13:30,0.906,1.503,0.942,1.777,1.208,0.497,0.883,0.846,�쓌,3.2,��
2017/12/22,13:40,0.906,1.499,0.943,1.776,1.207,0.495,0.885,0.845,�쓌,2.0,��
2017/12/22,13:50,0.906,1.499,0.943,1.778,1.204,0.496,0.887,0.846,��쓌,2.8,��
2017/12/22,14:00,0.906,1.501,0.943,1.777,1.205,0.494,0.887,0.846,��쓌,3.1,��
2017/12/22,14:10,0.906,1.502,0.944,1.780,1.204,0.496,0.885,0.847,��쓌,2.8,��
2017/12/22,14:20,0.907,1.502,0.943,1.781,1.208,0.497,0.885,0.845,��쓌,2.8,��
2017/12/22,14:30,0.907,1.500,0.944,1.775,1.208,0.497,0.885,0.848,��쓌,3.9,��
2017/12/22,14:40,0.905,1.505,0.945,1.778,1.207,0.495,0.884,0.848,��쓌,4.0,��
2017/12/22,14:50,0.904,1.505,0.944,1.777,1.204,0.495,0.885,0.849,��,4.9,��
2017/12/22,15:00,0.906,1.507,0.943,1.776,1.204,0.497,0.884,0.849,��쓌,4.9,��
2017/12/22,15:10,0.906,1.504,0.945,1.774,1.204,0.496,0.884,0.850,��,5.7,��
2017/12/22,15:20,0.905,1.504,0.943,1.778,1.204,0.496,0.885,0.848,��,5.9,��
2017/12/22,15:30,0.906,1.506,0.944,1.776,1.203,0.495,0.884,0.849,��,5.3,��
2017/12/22,15:40,0.903,1.504,0.943,1.779,1.206,0.496,0.886,0.849,��,4.6,��
2017/12/22,15:50,0.904,1.506,0.941,1.779,1.203,0.496,0.885,0.848,��,4.4,��
2017/12/22,16:00,0.903,1.504,0.943,1.777,1.204,0.495,0.885,0.848,��,2.9,��
2017/12/22,16:10,0.904,1.502,0.944,1.777,1.205,0.498,0.885,0.850,��,2.3,��
2017/12/22,16:20,0.903,1.506,0.942,1.774,1.204,0.497,0.884,0.848,��,2.0,��
2017/12/22,16:30,0.902,1.506,0.943,1.775,1.203,0.495,0.885,0.848,��쐼,2.8,��
2017/12/22,16:40,0.904,1.506,0.943,1.776,1.205,0.495,0.884,0.849,���쐼,1.7,��
2017/12/22,16:50,0.904,1.508,0.944,1.775,1.206,0.495,0.884,0.850,��,1.4,��
2017/12/22,17:00,0.902,1.506,0.944,1.772,1.206,0.495,0.882,0.848,���k��,1.7,��
2017/12/22,17:10,0.903,1.506,0.942,1.774,1.206,0.495,0.882,0.848,��,1.1,��
2017/12/22,17:20,0.901,1.507,0.942,1.774,1.204,0.495,0.883,0.848,��쐼,2.0,��
2017/12/22,17:30,0.902,1.506,0.944,1.774,1.204,0.495,0.883,0.849,���쐼,2.5,��
2017/12/22,17:40,0.901,1.504,0.943,1.774,1.205,0.496,0.880,0.848,���쐼,2.3,��
2017/12/22,17:50,0.904,1.504,0.943,1.773,1.204,0.496,0.883,0.846,���쐼,2.3,��
2017/12/22,18:00,0.903,1.507,0.945,1.775,1.206,0.497,0.883,0.849,���쐼,3.7,��
2017/12/22,18:10,0.904,1.507,0.941,1.773,1.204,0.495,0.883,0.848,���쐼,3.9,��
2017/12/22,18:20,0.902,1.505,0.943,1.776,1.203,0.495,0.883,0.846,��,4.6,��
2017/12/22,18:30,0.904,1.506,0.942,1.772,1.203,0.495,0.882,0.846,���k��,4.3,��
2017/12/22,18:40,0.903,1.508,0.944,1.773,1.204,0.497,0.882,0.847,���k��,4.5,��
2017/12/22,18:50,0.903,1.503,0.944,1.773,1.203,0.495,0.880,0.849,��,3.7,��
2017/12/22,19:00,0.903,1.504,0.944,1.771,1.202,0.497,0.881,0.846,���쐼,4.4,��
2017/12/22,19:10,0.903,1.505,0.943,1.776,1.204,0.496,0.883,0.847,���쐼,4.8,��
2017/12/22,19:20,0.903,1.504,0.943,1.774,1.204,0.496,0.880,0.848,���쐼,4.6,��
2017/12/22,19:30,0.903,1.506,0.943,1.773,1.203,0.494,0.883,0.846,���쐼,5.4,��
2017/12/22,19:40,0.904,1.504,0.944,1.775,1.203,0.496,0.881,0.848,��,6.6,��
2017/12/22,19:50,0.903,1.506,0.944,1.778,1.204,0.495,0.881,0.847,���쐼,6.2,��
2017/12/22,20:00,0.903,1.506,0.941,1.775,1.203,0.496,0.881,0.848,���쐼,6.0,��
2017/12/22,20:10,0.903,1.506,0.941,1.776,1.203,0.495,0.883,0.846,���쐼,5.8,��
2017/12/22,20:20,0.903,1.505,0.943,1.775,1.202,0.495,0.880,0.848,���쐼,5.1,��
2017/12/22,20:30,0.904,1.506,0.943,1.773,1.205,0.494,0.880,0.847,���쐼,5.1,��
2017/12/22,20:40,0.905,1.505,0.944,1.774,1.201,0.494,0.882,0.847,�쐼,5.7,��
2017/12/22,20:50,0.901,1.505,0.940,1.774,1.203,0.496,0.882,0.848,���쐼,5.8,��
2017/12/22,21:00,0.902,1.504,0.942,1.775,1.201,0.494,0.884,0.848,���쐼,6.4,��
2017/12/22,21:10,0.903,1.503,0.940,1.773,1.204,0.496,0.881,0.848,���쐼,6.2,��
2017/12/22,21:20,0.903,1.504,0.941,1.775,1.203,0.495,0.881,0.846,���쐼,5.8,��
2017/12/22,21:30,0.903,1.504,0.943,1.772,1.204,0.496,0.881,0.847,���쐼,7.5,��
2017/12/22,21:40,0.902,1.502,0.943,1.773,1.204,0.495,0.881,0.847,���쐼,6.5,��
2017/12/22,21:50,0.904,1.506,0.944,1.772,1.200,0.496,0.882,0.847,���쐼,5.4,��
2017/12/22,22:00,0.905,1.506,0.944,1.772,1.201,0.494,0.881,0.848,��,6.1,��
2017/12/22,22:10,0.903,1.507,0.941,1.774,1.200,0.495,0.882,0.848,���쐼,6.7,��
2017/12/22,22:20,0.902,1.507,0.940,1.778,1.204,0.495,0.883,0.848,���쐼,6.5,��
2017/12/22,22:30,0.904,1.504,0.942,1.778,1.202,0.495,0.881,0.848,���쐼,5.2,��
2017/12/22,22:40,0.904,1.507,0.942,1.775,1.204,0.493,0.882,0.848,���쐼,5.4,��
2017/12/22,22:50,0.903,1.507,0.943,1.778,1.204,0.495,0.882,0.848,���쐼,5.3,��
2017/12/22,23:00,0.905,1.505,0.941,1.776,1.203,0.496,0.882,0.849,���쐼,5.0,��
2017/12/22,23:10,0.903,1.503,0.941,1.775,1.205,0.494,0.881,0.847,���쐼,4.9,��
2017/12/22,23:20,0.902,1.506,0.944,1.774,1.201,0.497,0.881,0.849,���쐼,4.6,��
2017/12/22,23:30,0.902,1.504,0.942,1.773,1.204,0.495,0.882,0.848,���쐼,4.2,��
2017/12/22,23:40,0.904,1.502,0.942,1.774,1.202,0.496,0.880,0.848,���쐼,3.8,��
2017/12/22,23:50,0.902,1.505,0.941,1.774,1.200,0.494,0.882,0.847,�쐼,5.1,��
